Dewpoint
15 15 14 13 12 10 11 11 12 13 13 14 15 15 15 15 16 15 15 15 13 12 13 14 13 12 12 13 13 13 13 13 13 13 13 14 14 14 15 14 14 14 14 13 12 12 11 11 11 11 12 12 12 12 12 13 13 13 13 13 14 14 13
15 15 15 14 13 11 10 11 12 13 13 14 14 15 15 15 15 15 15 15 14 12 12 13 13 12 12 12 13 13 13 14 14 13 14 14 14 14 14 14 13 13 13 13 13 13 13 12 12 12 12 12 12 12 12 12 12 12 12 13 13 14 14
15 15 15 14 13 12 11 12 12 13 13 13 14 15 15 15 15 15 15 15 14 13 12 12 13 12 12 12 12 12 13 13 14 14 14 14 14 14 14 13 13 13 13 13 13 13 13 13 14 14 14 14 14 13 11 12 12 12 12 12 12 13 14
15 15 15 14 14 13 12 12 12 13 13 13 14 14 15 15 14 14 14 14 15 13 11 12 13 12 12 12 12 12 12 12 13 13 13 14 13 13 13 12 13 13 13 13 13 13 13 14 14 15 15 15 14 14 12 11 12 12 12 11 12 12 12
15 15 15 15 14 13 13 13 13 13 13 14 14 14 14 14 14 14 14 14 14 12 11 11 12 12 11 12 12 12 12 12 12 13 13 13 13 13 12 13 13 13 13 13 14 13 14 14 15 15 15 15 15 14 12 11 11 12 12 11 11 12 12
15 15 15 15 15 14 13 12 13 13 13 13 14 14 14 14 14 14 14 14 14 12 10 11 12 11 11 11 12 12 12 12 12 12 13 13 13 13 13 14 14 13 13 14 14 14 15 15 15 15 15 15 14 13 12 11 11 12 12 12 12 12 12
15 15 15 15 15 14 14 13 13 13 13 13 13 14 14 14 14 14 14 14 14 12 10 11 11 12 11 11 12 12 12 12 12 12 13 13 13 13 14 14 14 14 15 15 15 15 16 15 15 15 15 15 14 13 12 12 12 12 12 12 12 12 12
15 15 15 15 15 14 13 13 13 14 14 13 13 14 15 15 14 14 14 14 14 13 11 10 11 12 12 12 12 12 13 12 12 13 13 13 13 14 14 14 14 15 15 15 14 15 15 15 15 15 15 15 15 14 13 13 14 14 13 13 13 13 12
15 15 15 15 15 14 13 13 13 14 14 13 13 13 14 15 15 14 14 14 15 14 12 11 11 12 12 12 12 12 13 13 13 13 14 14 15 15 15 15 15 15 15 14 15 15 15 15 16 16 15 15 15 15 13 13 15 15 15 14 14 13 13
15 15 15 15 15 14 13 14 14 14 14 14 14 13 13 15 15 14 14 15 14 14 13 12 11 12 12 13 12 12 13 13 13 13 14 14 15 15 16 16 15 15 15 14 15 15 15 15 16 16 16 15 15 15 15 14 15 16 16 16 15 14 14
16 16 16 16 16 16 15 15 14 14 14 14 13 13 14 15 15 14 14 14 14 14 14 13 13 13 12 13 13 13 13 14 15 15 13 13 14 15 16 16 16 15 15 15 15 15 15 16 16 16 16 15 15 16 15 15 16 16 16 16 16 15 15
16 16 17 17 17 17 16 16 15 14 14 14 14 13 14 15 15 14 14 14 14 14 15 14 14 14 14 15 16 15 15 16 16 16 15 14 14 14 15 16 15 15 15 15 15 15 15 16 16 15 15 15 15 16 15 15 16 16 16 16 16 15 15
16 17 17 17 16 16 16 16 15 15 14 14 14 14 14 15 14 14 13 14 14 15 15 15 15 15 16 16 17 17 16 16 15 15 16 16 14 14 15 15 15 15 15 15 15 15 15 15 15 15 15 15 15 15 15 15 15 16 16 16 15 15 15
16 16 17 17 17 16 16 16 16 16 15 15 15 16 16 16 16 16 15 15 16 16 16 15 15 16 17 17 17 17 17 16 15 14 16 17 16 15 15 16 15 15 15 14 14 14 14 14 15 15 15 15 15 15 15 15 15 15 15 15 15 15 15
17 16 16 17 17 17 17 17 17 17 16 16 17 17 17 17 17 17 17 17 17 17 16 16 16 16 17 16 16 17 17 16 15 15 16 16 16 16 16 16 15 15 15 14 14 14 14 14 14 15 15 15 15 15 15 15 15 15 15 15 15 14 14
16 16 16 16 17 17 17 17 17 17 16 16 16 17 17 17 16 16 16 16 16 16 16 16 16 16 16 15 16 16 16 15 15 15 16 16 16 15 15 15 15 15 14 14 14 14 14 14 15 15 15 15 15 15 15 15 15 15 15 15 15 15 14
16 16 16 16 17 17 17 17 17 17 17 16 16 16 16 16 16 16 16 15 15 15 15 15 15 15 15 15 15 16 15 15 15 15 15 16 16 15 15 15 14 14 14 14 13 13 13 13 14 14 14 15 15 15 15 15 15 15 16 15 15 15 15
16 16 16 16 17 17 17 17 17 17 17 16 16 16 16 16 16 15 15 15 15 15 15 15 15 15 15 15 16 16 17 16 15 15 15 16 16 15 15 15 14 14 14 14 13 13 13 13 13 13 14 14 14 14 15 15 15 15 15 15 16 16 16
15 15 16 16 16 16 17 17 17 17 16 16 16 16 16 16 16 15 15 15 15 15 16 16 15 14 13 14 15 16 17 17 16 16 17 17 16 15 15 15 14 14 14 14 14 14 13 13 13 13 13 13 14 14 14 14 15 14 15 15 16 16 16
15 15 15 16 16 16 16 16 16 16 16 16 16 16 17 17 16 16 16 15 15 16 17 16 16 15 14 14 15 15 16 17 17 17 17 17 17 17 16 15 15 15 14 14 14 14 14 14 14 14 14 14 14 14 14 14 14 14 15 15 15 16 16
15 15 15 15 15 16 16 16 16 16 16 16 16 16 16 16 16 16 16 16 16 16 17 16 16 16 16 16 16 15 15 15 16 16 16 17 17 16 16 15 15 15 15 15 15 15 15 14 14 14 14 14 14 14 14 14 14 14 14 14 14 14 15
15 15 15 15 15 15 15 15 16 16 16 16 16 16 16 16 16 16 16 16 15 15 15 15 15 15 16 16 16 15 15 15 15 16 16 17 17 17 17 16 16 15 14 15 15 15 15 15 15 15 14 14 14 14 14 14 15 15 14 14 14 14 14
15 15 15 15 15 15 15 15 15 15 15 15 15 15 15 16 16 16 16 16 16 16 16 16 16 16 16 16 15 15 15 15 15 15 15 16 16 17 17 17 16 16 15 15 15 15 15 15 15 15 14 14 14 14 14 14 15 16 15 15 15 14 14
15 15 15 15 15 15 15 15 15 14 15 15 15 15 15 15 15 15 15 16 15 15 15 15 16 16 16 16 16 16 16 16 16 16 15 14 14 15 15 15 15 15 16 16 16 15 15 16 16 16 15 14 14 15 15 16 16 16 15 15 14 14 13
13 13 13 14 14 14 14 14 14 14 14 14 14 14 14 14 14 14 14 14 14 15 15 15 15 15 15 16 16 16 16 16 16 16 16 16 15 15 15 15 15 16 16 16 16 16 16 16 16 16 15 15 15 15 16 17 16 16 15 14 14 14 13
11 11 11 11 12 13 13 13 13 13 13 13 13 14 14 13 14 13 13 13 14 14 14 14 14 14 14 14 15 15 15 15 15 15 15 16 16 16 16 16 16 16 16 16 16 16 16 16 16 16 16 16 16 16 16 17 17 16 15 15 15 16 15
10 10 10 11 11 12 13 12 12 11 11 12 12 12 12 11 12 12 13 13 13 13 13 13 13 13 13 13 13 14 14 14 14 14 15 15 15 15 16 16 16 16 16 16 17 17 16 16 16 16 16 16 16 16 16 16 16 16 16 16 16 16 16
9 9 10 10 11 11 11 11 11 11 11 11 11 10 10 10 9 10 12 13 12 12 12 10 8 9 10 11 13 13 13 13 13 14 14 14 14 14 15 15 15 16 16 16 16 16 16 16 16 16 16 16 16 16 16 16 16 15 16 16 16 16 16
7 8 9 9 9 10 9 10 10 10 10 10 10 10 10 8 6 6 7 7 7 7 6 3 2 2 3 6 9 10 10 11 12 13 13 13 12 12 13 13 14 15 15 15 15 16 16 16 16 16 16 16 16 16 16 16 16 16 16 16 15 15 15
6 7 7 7 7 7 6 7 8 9 10 10 10 10 9 6 3 2 1 1 1 1 3 5 6 6 5 4 4 5 6 8 10 11 12 12 12 12 12 12 12 13 13 14 14 15 15 15 15 15 15 15 15 15 15 15 15 15 15 15 15 15 15
5 6 6 6 6 5 4 3 3 4 6 8 9 8 7 5 3 2 2 4 5 4 5 7 8 8 8 8 7 7 7 6 6 7 9 10 11 11 11 11 11 11 12 13 13 14 14 14 14 14 14 14 14 14 14 14 14 14 14 14 15 15 15
6 6 5 4 4 2 -1 -4 -6 -7 -5 -2 -0 -1 -1 0 1 0 2 6 8 8 8 8 8 8 9 9 9 9 7 6 5 5 5 6 8 10 11 11 11 10 11 11 12 12 12 12 12 12 12 13 13 13 13 13 13 13 13 14 14 15 15
6 5 5 4 1 -2 -7 -10 -12 -14 -13 -10 -9 -9 -8 -8 -9 -10 -6 -1 3 5 7 8 8 8 8 9 9 9 8 8 8 7 6 4 5 7 10 12 12 10 10 10 10 10 10 10 11 11 10 10 11 12 12 12 12 12 13 13 13 13 13
6 5 6 6 4 0 -1 -3 -4 -6 -6 -7 -8 -7 -7 -9 -12 -16 -15 -11 -8 -5 -1 4 7 8 8 8 8 9 9 9 9 9 7 5 5 4 6 10 12 11 10 10 10 9 9 9 10 10 8 8 10 11 11 11 11 11 11 11 11 11 11
6 6 6 6 6 5 5 4 2 0 -1 -3 -5 -6 -7 -8 -9 -11 -13 -14 -11 -8 -6 -2 3 5 6 6 6 7 7 7 7 7 5 4 4 1 -2 5 10 11 10 9 9 9 9 9 10 9 8 7 9 9 9 10 10 10 10 10 9 9 9
6 6 7 7 7 7 7 6 4 2 2 1 -0 -1 -2 -3 -5 -6 -9 -12 -11 -6 -4 -2 0 3 3 4 5 6 7 6 5 6 5 4 1 -4 -13 -6 3 6 6 8 10 10 10 10 10 9 9 8 8 8 8 8 8 9 9 9 9 7 5
6 6 7 8 7 7 7 7 6 5 4 2 2 2 1 1 -0 -2 -4 -8 -9 -7 -6 -5 -1 2 3 3 5 6 7 7 6 5 4 2 -1 -6 -12 -12 -8 -6 -4 1 5 7 6 6 7 7 7 7 6 5 4 3 2 3 4 5 5 2 -4
7 7 7 8 8 8 7 7 7 7 6 4 3 3 2 2 2 2 0 -3 -6 -7 -8 -9 -3 2 3 4 5 6 6 6 5 4 2 1 -1 -3 -5 -5 -4 -4 -5 -5 -3 -1 -2 -3 -3 -2 -1 -2 -3 -5 -7 -10 -11 -10 -9 -8 -8 -11 -16
Wind_Speed
35 31 28 27 29 37 42 43 42 41 37 35 33 32 31 31 30 29 28 28 28 28 27 25 25 24 23 22 22 22 22 21 20 20 19 19 18 17 17 16 15 14 13 13 12 11 11 12 12 11 11 11 10 10 9 8 8 8 7 7 7 7 6
36 34 31 29 29 34 42 43 42 42 38 35 34 33 33 33 32 31 29 27 27 28 27 26 25 25 24 23 21 21 22 21 19 19 19 18 18 17 17 16 15 13 14 13 12 11 10 12 12 10 11 11 10 10 9 9 9 8 8 8 8 8 7
37 36 34 33 32 33 40 43 42 42 39 37 37 35 35 35 33 32 30 28 27 27 27 27 26 25 24 23 22 21 22 21 19 20 19 18 18 17 16 16 15 15 15 15 14 13 11 11 12 10 10 11 10 10 10 10 10 9 9 9 9 9 9
38 38 35 35 35 34 37 42 43 41 39 38 38 36 36 35 33 31 30 27 26 27 29 28 27 26 25 24 22 21 21 20 18 19 19 18 17 17 16 16 16 16 17 16 15 14 13 12 12 11 11 10 10 10 10 10 11 10 10 9 9 9 9
37 37 35 35 37 37 36 39 42 42 39 39 39 37 37 36 33 32 30 27 26 27 29 28 27 26 25 24 22 21 20 18 18 18 18 17 17 17 18 17 17 17 17 16 15 13 13 13 12 12 12 11 11 10 9 11 11 11 10 10 10 10 10
36 37 37 36 37 39 39 38 40 43 41 40 41 40 39 37 34 32 30 27 26 27 29 29 28 27 25 24 23 21 20 19 18 18 18 17 18 18 17 16 16 16 16 15 14 13 12 12 11 12 13 12 12 10 9 10 11 11 10 10 10 11 11
36 36 37 36 35 37 40 39 39 41 41 39 40 40 40 38 35 32 30 28 27 28 29 29 28 27 25 24 23 22 21 20 19 19 18 17 18 17 16 15 15 15 15 15 14 13 13 12 11 12 12 12 12 10 10 9 9 10 10 10 10 11 11
36 36 36 36 35 37 42 43 40 40 40 39 39 38 37 38 36 34 32 30 27 28 30 30 29 28 26 25 24 23 21 20 19 19 18 18 18 17 15 15 15 14 14 14 13 13 13 12 11 11 11 11 11 11 11 10 9 9 10 10 10 10 11
34 35 36 37 36 36 40 42 41 41 41 40 39 37 35 38 39 36 33 31 29 28 30 30 29 27 26 25 25 23 21 20 19 19 19 18 18 17 15 14 15 14 14 14 13 13 13 12 11 11 10 10 11 11 11 11 10 9 9 8 9 9 10
30 33 35 35 35 36 38 38 36 37 40 40 38 36 37 40 41 37 33 32 30 29 29 31 30 28 27 26 25 23 22 20 19 19 19 19 19 18 16 14 14 14 14 13 13 12 12 12 11 11 11 11 11 10 10 10 10 9 8 8 8 8 9
28 29 29 26 25 27 30 32 32 34 37 38 37 37 38 42 44 39 35 34 32 30 29 29 30 29 27 25 24 23 22 21 19 18 19 20 20 18 16 14 14 14 13 13 12 12 11 11 11 11 11 11 11 11 10 9 9 9 9 9 9 9 9
27 26 24 21 20 18 17 20 26 33 36 36 37 37 38 43 45 39 35 35 32 31 30 29 29 28 26 24 23 23 24 23 20 19 18 18 19 18 16 14 13 13 13 13 12 11 11 11 10 10 10 11 11 11 10 9 9 9 10 10 10 9 10
25 24 24 24 25 24 21 22 27 33 36 37 37 38 40 44 45 40 37 36 33 31 31 30 29 28 26 25 24 24 25 24 22 20 18 15 15 16 16 14 13 13 13 13 12 11 11 10 10 9 9 9 10 10 10 10 10 10 11 11 10 10 10
19 20 20 19 20 23 24 26 29 30 32 33 32 33 34 34 35 35 35 36 35 33 31 30 29 29 29 28 27 26 27 25 21 19 19 17 14 15 16 16 16 15 14 13 14 13 11 11 11 10 10 9 9 9 10 10 11 11 11 11 11 11 11
15 16 18 16 14 17 20 23 25 25 28 28 20 17 24 28 27 29 30 31 32 31 30 30 30 30 31 30 28 28 28 26 22 20 21 21 18 18 19 21 20 19 17 16 16 16 15 14 13 12 12 12 11 10 10 11 11 10 11 12 12 12 12
15 15 18 18 16 17 18 21 27 28 32 34 22 11 21 31 30 29 30 27 27 26 26 27 28 28 29 29 29 29 28 25 23 22 23 22 21 21 20 21 22 20 19 19 18 18 18 17 16 15 15 15 14 13 13 13 12 12 12 13 14 13 13
15 16 17 19 18 19 18 19 25 29 32 36 29 17 19 27 27 27 28 26 27 28 26 25 26 27 27 26 26 27 26 24 23 24 24 23 22 23 22 21 22 21 18 19 19 19 18 18 19 18 18 18 17 16 17 16 15 13 13 13 14 14 13
12 15 16 17 17 18 20 19 22 27 30 32 31 24 21 23 25 26 26 25 26 27 27 27 27 26 25 23 21 22 22 24 25 26 25 24 24 25 25 24 24 23 20 19 19 19 18 18 19 20 20 19 19 19 19 18 16 14 13 13 13 14 14
9 10 13 15 15 16 20 20 20 23 27 27 27 25 22 23 25 26 27 27 28 27 27 28 26 24 25 24 23 23 22 22 25 27 26 26 26 28 28 26 25 24 23 21 20 20 20 19 20 20 20 20 20 21 21 20 18 16 14 14 14 15 16
9 7 6 9 12 14 16 17 17 19 23 23 23 22 22 24 25 26 27 28 29 28 28 28 26 24 25 27 28 28 24 21 22 24 24 24 24 25 27 27 25 24 24 23 22 22 22 21 21 21 20 20 20 21 21 20 18 17 17 16 16 16 16
12 10 8 7 9 11 13 15 17 18 19 22 23 22 21 21 21 23 23 23 24 23 23 24 24 22 24 26 27 27 26 23 23 25 26 26 25 25 26 28 28 26 25 25 25 24 23 23 22 21 20 20 21 21 21 20 19 18 18 17 16 16 15
14 13 11 9 9 11 11 11 13 14 13 15 18 19 18 17 18 19 19 18 17 16 15 16 19 21 24 26 24 24 25 25 25 26 27 26 26 27 27 27 27 27 27 27 27 27 27 25 23 22 21 21 21 21 21 21 20 20 19 18 17 16 15
17 15 14 12 11 11 11 11 13 14 14 14 13 11 10 10 13 16 19 18 16 17 16 15 17 21 24 24 24 24 24 24 25 26 27 26 26 27 26 23 23 25 26 27 28 28 27 26 24 23 22 21 21 21 21 22 21 21 21 19 18 17 16
20 18 18 17 16 16 17 17 18 18 18 18 20 18 15 13 11 11 13 12 10 11 14 13 13 15 17 19 21 22 22 20 20 21 24 27 28 28 28 26 26 27 27 27 28 27 25 25 24 23 23 23 22 21 22 22 22 22 22 20 20 19 18
25 24 22 20 20 22 22 20 20 20 18 19 21 20 18 17 16 13 11 10 8 9 9 8 7 7 9 11 13 14 16 17 15 14 18 23 25 25 26 26 27 27 27 28 28 26 24 24 24 23 24 26 27 26 24 23 23 24 23 22 21 20 20
23 23 21 19 19 22 23 20 19 17 16 15 15 15 14 14 12 10 10 12 13 12 11 9 6 4 4 4 5 6 8 9 8 7 10 15 18 19 21 22 23 24 24 24 24 24 23 24 23 22 23 24 26 27 26 24 23 24 24 23 22 21 20
22 21 19 18 18 20 20 17 15 15 14 12 11 12 11 10 11 13 14 15 15 13 11 8 5 5 5 5 4 3 2 3 4 3 4 6 8 10 12 15 18 20 20 20 20 21 21 20 19 20 21 22 23 25 25 23 22 22 22 22 22 21 21
22 22 21 20 19 17 17 15 13 12 12 9 7 7 7 6 10 15 16 14 14 13 11 9 8 9 9 9 9 9 8 8 7 7 7 5 4 3 5 7 10 13 16 17 18 19 18 17 16 17 19 20 21 22 22 22 22 21 21 22 21 20 21
18 20 22 21 18 14 14 14 13 12 11 8 6 5 4 5 11 14 13 13 14 13 12 13 15 15 14 13 11 10 10 9 9 9 9 8 7 5 5 4 4 6 8 9 11 13 13 13 12 13 14 15 16 16 15 17 18 19 21 22 21 20 21
15 17 18 16 13 10 10 12 13 14 13 12 9 6 4 6 10 14 14 15 16 16 16 18 18 17 16 14 13 12 10 9 9 9 9 9 8 7 6 6 6 5 5 4 4 4 5 6 5 6 6 6 7 8 8 9 10 12 16 19 20 21 22
13 12 10 8 8 8 8 10 10 11 12 11 9 7 5 5 7 11 14 15 15 15 15 15 15 16 15 14 13 12 11 9 8 8 7 7 7 6 7 7 7 7 8 7 6 5 3 3 2 2 2 3 4 4 5 5 4 6 10 12 14 16 19
9 7 6 7 8 9 10 12 12 12 12 11 10 9 8 7 7 9 11 12 11 11 10 10 10 12 12 11 11 11 10 8 8 8 8 6 6 6 7 7 7 7 7 7 7 6 5 4 3 2 1 1 1 1 1 1 1 3 5 6 7 9 12
9 8 7 7 8 10 12 14 14 14 13 12 10 9 9 9 9 9 10 9 9 9 9 8 8 8 9 9 9 8 7 7 7 8 7 7 6 4 4 4 5 5 5 4 4 4 5 5 5 5 5 5 4 3 2 2 3 2 2 1 2 4 4
11 10 7 5 6 8 9 11 12 12 12 11 10 9 8 9 10 9 8 8 8 10 10 10 11 10 10 9 9 8 6 5 5 5 4 3 3 1 1 3 4 2 2 2 2 3 5 5 5 6 6 5 4 4 4 4 4 4 4 3 2 1 1
12 10 8 6 5 3 4 6 7 8 10 10 10 9 8 8 7 7 7 7 9 11 12 12 12 13 12 10 9 8 7 5 4 4 2 2 2 2 4 6 7 4 3 1 1 1 2 2 2 3 3 2 2 2 3 3 3 3 4 3 2 1 1
13 11 9 8 6 2 1 1 3 5 7 7 7 7 7 6 6 5 5 5 7 9 9 9 9 11 12 11 9 9 8 7 6 5 3 2 1 2 5 8 8 6 5 4 3 2 1 1 1 2 3 2 3 3 2 2 3 4 5 5 4 4 4
10 9 8 8 8 5 4 3 1 0 2 3 3 3 3 3 4 3 3 3 6 7 7 7 6 7 9 10 10 10 9 8 7 5 3 1 2 4 5 7 6 5 5 5 5 4 4 4 5 6 6 7 7 8 8 8 7 7 7 7 7 7 6
8 6 6 6 6 6 5 5 4 4 4 5 5 4 3 3 2 2 1 2 4 6 7 8 8 8 8 9 10 11 10 10 8 6 4 3 3 2 3 4 6 6 6 5 4 3 2 3 4 5 6 7 8 9 9 9 9 8 8 7 7 6 5
Wind_Direction
196 195 196 195 188 184 186 187 188 188 188 189 191 193 198 202 204 204 204 205 206 205 201 201 201 200 200 201 200 202 205 207 205 206 209 209 210 209 206 208 208 206 208 210 210 210 208 208 206 202 204 205 203 210 217 218 216 214 214 215 215 218 215
195 196 197 196 189 185 186 187 187 188 189 190 191 194 199 203 204 206 206 206 207 206 204 203 203 201 200 200 201 201 203 205 206 205 207 208 208 208 209 210 210 210 213 214 212 211 211 208 203 198 200 203 207 211 215 220 222 220 218 215 217 223 219
194 195 196 196 193 186 186 187 188 189 192 192 192 196 200 204 206 207 209 208 207 207 205 205 204 203 201 201 202 202 203 205 205 204 203 204 205 205 206 208 208 211 213 212 211 210 210 210 206 202 201 203 211 218 218 219 222 227 228 223 221 224 225
195 196 195 195 196 191 186 188 190 191 193 193 194 198 201 204 207 209 210 211 208 206 205 205 205 204 203 202 202 203 203 204 204 202 201 201 203 204 206 207 208 210 210 208 208 207 207 211 210 211 212 211 215 223 222 219 221 225 231 232 230 229 231
194 195 196 196 197 195 189 187 190 192 193 193 195 199 203 205 207 209 211 212 210 207 205 204 204 205 203 202 203 203 203 203 202 202 201 201 202 206 208 206 206 208 207 203 204 204 205 208 210 216 221 222 223 225 224 221 220 222 226 230 230 229 230
192 193 196 196 197 198 195 192 192 192 193 194 195 197 201 205 207 208 210 211 209 206 204 204 204 205 203 201 202 204 202 202 202 202 202 202 203 205 205 203 204 207 206 203 202 202 203 207 213 222 227 228 230 229 226 221 218 219 222 223 224 226 227
192 193 194 194 196 198 199 198 196 193 193 195 196 195 197 202 206 207 208 209 206 204 203 203 204 205 203 200 201 203 202 201 201 202 202 204 206 205 202 202 204 206 206 208 206 204 207 212 217 222 225 228 230 230 228 223 219 220 221 221 222 223 224
193 194 193 194 194 195 197 199 198 193 191 193 195 194 194 200 206 208 208 207 205 205 204 203 204 205 203 200 201 203 202 201 200 201 203 204 204 202 200 203 206 207 208 210 211 210 213 218 218 217 217 221 225 227 225 222 220 221 222 221 223 226 229
193 194 195 195 195 194 194 195 197 195 192 193 196 198 198 201 205 209 209 208 207 207 206 205 205 205 203 201 202 202 202 202 202 203 204 203 202 200 198 202 206 208 210 210 210 213 215 218 220 217 213 215 220 224 225 222 217 218 223 224 225 229 232
191 194 197 197 196 195 193 192 194 195 195 197 199 201 201 201 205 209 209 207 207 207 206 206 206 206 205 204 204 204 204 204 204 206 207 205 203 202 199 200 203 206 209 210 209 212 213 214 218 218 216 216 218 221 221 216 211 215 227 235 236 234 232
189 192 193 192 191 192 192 192 192 192 195 197 198 198 199 201 205 208 208 208 206 204 205 205 206 208 208 207 207 208 206 204 203 208 212 210 206 206 203 199 201 204 206 208 209 211 212 211 215 220 221 219 218 219 221 218 215 221 234 244 246 243 238
190 188 184 184 186 189 193 195 194 192 194 196 198 198 198 201 205 206 206 205 202 201 202 204 205 205 205 205 208 209 205 202 204 208 211 212 212 209 204 201 204 207 207 207 208 211 214 215 220 225 226 225 223 222 226 229 229 231 237 243 245 244 240
189 188 187 187 190 194 195 197 200 198 197 198 200 201 201 203 205 205 204 202 200 199 200 201 202 202 202 205 208 209 207 205 208 207 204 210 215 208 203 205 210 213 214 214 214 215 216 219 224 227 224 226 230 231 233 235 235 237 240 242 243 244 241
178 182 186 184 188 196 195 194 197 196 193 194 197 200 200 198 196 195 195 196 196 197 198 198 199 199 202 207 209 211 213 212 209 205 201 206 216 215 214 219 221 222 224 224 223 222 222 223 225 226 225 227 233 238 239 240 238 237 240 242 244 245 241
148 168 181 179 182 192 190 189 192 191 189 188 188 195 195 191 189 188 188 190 192 193 195 196 198 201 205 209 209 211 216 215 208 205 205 206 213 219 222 226 229 231 231 231 231 228 227 229 228 226 226 228 231 234 239 245 246 244 244 243 242 243 241
134 156 179 185 184 184 186 189 190 191 190 188 187 190 189 191 196 196 193 195 198 199 199 197 198 201 206 210 211 212 214 210 205 208 210 208 212 220 223 225 229 231 231 231 233 231 227 229 230 228 226 225 225 226 231 239 242 243 246 245 242 243 242
139 148 169 183 185 185 186 186 188 190 189 189 193 197 189 189 195 197 195 199 205 207 208 205 201 200 204 207 210 212 211 206 204 208 208 207 212 219 222 223 224 226 227 227 230 231 229 230 233 233 232 230 228 227 228 232 235 237 243 245 244 244 243
139 148 165 176 181 185 186 184 184 188 191 192 195 198 195 193 197 200 198 199 203 205 207 208 204 203 206 208 209 211 211 209 210 210 207 206 211 217 220 220 220 222 225 226 229 232 233 233 235 237 238 238 237 235 232 230 231 234 239 242 243 242 241
143 163 179 179 173 174 180 179 174 180 188 191 192 194 195 194 197 201 202 202 204 206 206 206 203 203 209 212 213 213 210 209 211 211 211 211 213 214 216 217 219 222 225 228 230 232 233 233 233 236 239 240 240 239 236 232 232 235 237 237 237 239 242
136 155 180 183 174 166 172 177 174 179 187 188 189 192 191 191 193 195 198 201 202 202 202 201 196 196 205 210 213 216 218 219 219 219 221 223 221 219 219 220 222 223 225 229 231 232 234 234 234 235 237 240 240 239 239 237 236 237 236 234 234 237 241
116 116 118 138 146 140 150 164 169 177 186 189 193 195 194 194 194 191 195 201 202 200 201 203 200 198 204 208 211 217 223 228 230 229 229 230 230 230 229 228 228 228 230 233 235 236 236 236 235 234 235 238 239 239 240 239 236 234 233 233 234 236 237
104 105 109 117 113 107 119 140 149 153 160 171 184 194 199 205 207 204 207 211 212 210 211 212 212 211 211 212 213 216 221 227 232 234 232 230 229 230 229 227 229 231 233 236 239 241 240 239 237 235 233 233 234 236 238 237 235 235 236 235 237 239 237
101 104 107 114 116 113 113 115 114 114 113 113 121 136 156 177 195 204 206 204 206 211 211 206 203 206 209 214 218 222 227 231 235 238 239 236 234 235 236 232 232 235 237 239 242 243 243 242 239 235 233 233 233 235 238 237 237 239 241 239 237 237 236
95 97 100 105 111 112 112 109 103 100 100 99 100 103 110 118 130 154 174 180 187 200 203 203 202 202 205 212 218 223 226 230 236 241 240 238 238 240 242 240 238 240 241 241 243 244 243 242 238 235 235 236 235 235 235 235 236 236 237 239 240 242 243
99 100 101 102 105 105 105 104 101 97 94 95 99 104 109 115 117 119 124 127 132 144 154 166 181 189 197 208 216 222 226 231 243 247 237 233 234 236 237 236 236 238 241 243 244 243 241 241 241 239 240 239 236 233 231 230 232 233 236 240 243 246 247
103 105 104 102 105 109 110 109 106 103 100 101 109 116 123 131 134 126 116 120 128 132 131 132 132 128 154 189 207 228 236 238 246 244 227 227 231 232 233 234 235 236 238 240 241 242 241 243 244 244 243 241 238 236 234 230 230 232 237 240 240 240 241
99 100 99 99 108 117 120 116 109 105 105 110 123 131 135 140 135 125 121 122 120 115 110 109 100 92 107 125 130 139 162 162 156 156 177 205 223 229 232 235 236 237 238 238 239 242 243 242 241 243 245 247 247 246 244 240 237 235 237 240 238 234 233
108 108 108 110 115 118 115 109 102 96 94 97 111 124 127 119 109 112 117 117 109 101 97 99 100 99 101 107 114 117 116 121 127 124 116 118 133 178 206 220 226 230 232 235 237 242 245 245 242 241 243 247 248 246 244 244 245 244 243 244 243 239 236
120 123 125 124 124 121 115 114 116 116 115 121 129 130 118 88 90 101 110 111 109 108 109 110 108 103 100 103 111 115 114 116 118 113 107 104 105 122 140 147 173 201 213 220 225 231 236 237 236 233 233 237 241 240 240 243 247 249 251 252 252 248 245
124 129 132 127 122 122 122 125 127 129 134 143 145 141 121 91 102 116 122 122 124 126 123 118 111 105 104 106 110 115 119 122 120 117 114 112 109 106 103 101 105 112 117 132 158 185 203 209 218 231 238 245 254 260 263 262 261 262 261 258 255 251 248
127 132 132 122 117 119 121 122 123 124 132 140 142 139 124 103 116 129 129 129 132 134 132 129 123 118 115 113 115 121 128 130 124 119 116 112 108 103 96 93 94 97 100 105 113 125 149 166 189 249 270 278 283 287 287 284 277 267 261 255 250 247 244
120 122 116 114 119 119 118 120 121 120 121 123 126 128 125 121 126 131 132 136 143 144 142 140 134 127 125 127 129 131 130 123 112 108 104 97 92 98 103 100 93 93 100 108 114 117 122 126 130 117 78 31 355 344 322 304 224 234 246 246 244 246 245
118 115 105 105 114 117 115 116 120 122 120 118 118 117 116 119 121 121 125 134 145 150 153 156 150 137 134 144 153 152 140 125 116 113 107 98 89 85 100 113 103 89 89 99 103 90 79 86 96 84 69 66 71 76 79 97 116 127 132 168 240 258 264
130 131 128 115 106 104 99 96 102 110 111 107 105 100 97 103 107 109 115 127 139 144 147 154 159 154 148 153 162 165 157 143 141 144 136 117 111 110 164 165 154 131 93 85 84 66 56 61 71 63 58 67 85 87 88 98 108 111 109 110 105 47 349
145 145 149 146 126 90 62 66 79 88 89 89 90 86 82 85 89 93 104 124 142 146 146 153 161 163 164 168 170 171 172 176 187 201 229 264 261 238 203 191 187 187 191 187 161 116 77 58 41 25 29 47 74 82 92 110 131 148 155 157 159 207 255
159 158 159 162 165 185 291 78 86 79 77 79 80 77 76 76 76 82 101 131 155 163 164 167 169 170 176 184 193 197 200 210 226 241 262 277 238 167 173 184 190 195 198 197 196 195 192 205 275 294 303 298 288 283 271 257 244 226 225 241 258 269 269
171 173 168 169 177 188 197 198 202 39 40 40 42 48 51 52 53 60 88 139 170 187 201 212 208 193 191 198 209 218 223 228 235 248 267 250 159 142 150 161 167 171 180 191 205 218 232 244 256 267 272 272 274 278 279 278 272 262 256 261 271 279 281
179 184 184 186 192 200 211 228 245 261 289 312 318 317 322 331 341 350 336 227 211 213 221 230 231 220 213 220 228 231 234 239 244 254 261 251 233 207 171 154 149 146 143 147 162 182 209 234 250 263 272 276 277 277 278 279 276 273 268 266 269 273 273
Height
1525 1527 1530 1532 1534 1536 1538 1540 1543 1545 1547 1550 1552 1554 1556 1559 1561 1563 1565 1567 1568 1570 1572 1573 1574 1575 1576 1578 1579 1580 1581 1582 1583 1584 1585 1586 1587 1588 1589 1589 1590 1591 1592 1592 1593 1594 1595 1595 1596 1597 1598 1598 1599 1599 1600 1600 1601 1602 1602 1603 1603 1603 1604
1523 1526 1528 1530 1532 1534 1536 1538 1541 1543 1545 1548 1550 1552 1554 1556 1559 1561 1563 1565 1567 1569 1570 1572 1573 1574 1576 1577 1578 1579 1580 1581 1582 1583 1584 1585 1586 1587 1588 1589 1589 1590 1591 1592 1592 1593 1594 1594 1595 1596 1597 1597 1598 1599 1599 1600 1600 1601 1601 1602 1602 1603 1603
1519 1522 1524 1527 1529 1531 1534 1536 1539 1541 1543 1546 1547 1549 1552 1554 1557 1559 1562 1564 1566 1568 1569 1570 1572 1573 1575 1576 1577 1578 1579 1580 1581 1582 1583 1584 1585 1586 1587 1588 1588 1589 1590 1591 1592 1592 1593 1593 1594 1595 1596 1596 1597 1598 1598 1599 1600 1600 1601 1601 1602 1602 1603
1516 1519 1521 1525 1527 1529 1532 1534 1537 1539 1541 1544 1545 1547 1550 1553 1555 1558 1560 1562 1564 1566 1567 1569 1570 1572 1573 1575 1576 1577 1578 1579 1580 1581 1582 1583 1584 1585 1586 1587 1587 1588 1589 1590 1591 1591 1592 1593 1593 1594 1595 1595 1596 1597 1597 1598 1598 1599 1600 1600 1601 1601 1602
1514 1517 1520 1522 1524 1527 1529 1532 1535 1537 1539 1542 1543 1546 1548 1551 1554 1556 1559 1561 1562 1564 1566 1567 1569 1570 1572 1573 1575 1576 1577 1578 1579 1580 1582 1582 1583 1584 1585 1586 1586 1587 1588 1589 1590 1590 1591 1592 1592 1593 1594 1594 1595 1596 1596 1597 1597 1598 1599 1599 1600 1600 1601
1511 1514 1516 1518 1521 1524 1526 1529 1533 1534 1537 1539 1540 1544 1547 1550 1553 1555 1557 1559 1560 1563 1564 1566 1567 1568 1570 1572 1573 1575 1576 1577 1578 1580 1581 1581 1582 1583 1584 1585 1585 1586 1588 1588 1589 1589 1590 1591 1591 1592 1593 1594 1594 1595 1595 1596 1597 1597 1598 1598 1599 1600 1600
1509 1511 1514 1516 1519 1521 1524 1527 1530 1532 1535 1536 1538 1542 1545 1548 1551 1553 1555 1557 1558 1561 1562 1564 1566 1566 1568 1570 1572 1573 1574 1576 1577 1578 1580 1580 1581 1582 1583 1584 1585 1586 1587 1587 1588 1589 1589 1590 1591 1591 1592 1593 1593 1594 1595 1595 1596 1596 1597 1598 1598 1599 1599
1507 1510 1512 1515 1517 1519 1522 1524 1528 1530 1533 1535 1537 1540 1544 1547 1550 1552 1553 1555 1557 1558 1560 1562 1564 1565 1567 1569 1570 1572 1573 1575 1576 1577 1579 1579 1580 1581 1582 1583 1584 1585 1586 1586 1587 1588 1589 1589 1590 1591 1591 1592 1593 1593 1594 1594 1595 1596 1596 1597 1597 1598 1598
1507 1509 1510 1513 1515 1518 1520 1522 1525 1528 1530 1533 1535 1538 1542 1545 1548 1550 1551 1553 1555 1556 1558 1560 1562 1564 1566 1567 1569 1570 1572 1573 1575 1576 1577 1578 1579 1580 1581 1582 1583 1584 1585 1585 1586 1587 1588 1589 1589 1590 1590 1591 1592 1592 1593 1593 1594 1595 1596 1596 1597 1597 1598
1506 1508 1510 1512 1515 1517 1519 1521 1524 1526 1528 1531 1533 1536 1539 1542 1545 1547 1549 1551 1552 1554 1556 1558 1561 1563 1565 1566 1568 1569 1571 1572 1573 1575 1576 1577 1578 1579 1580 1581 1582 1583 1584 1585 1585 1586 1587 1588 1588 1589 1590 1590 1591 1591 1592 1593 1593 1594 1595 1595 1596 1596 1597
1506 1508 1510 1513 1515 1517 1518 1521 1523 1525 1527 1530 1532 1535 1537 1539 1542 1544 1546 1548 1550 1552 1554 1556 1559 1561 1563 1565 1567 1568 1570 1571 1573 1574 1575 1576 1577 1578 1580 1580 1581 1582 1583 1583 1584 1585 1586 1587 1588 1588 1588 1589 1590 1590 1591 1592 1592 1593 1594 1594 1595 1595 1596
1506 1508 1509 1512 1515 1518 1520 1523 1525 1524 1526 1528 1530 1532 1534 1536 1538 1540 1542 1545 1548 1550 1552 1555 1557 1559 1562 1564 1566 1567 1569 1569 1572 1574 1575 1576 1577 1577 1579 1580 1580 1581 1582 1582 1583 1584 1585 1585 1586 1587 1587 1588 1589 1589 1590 1590 1591 1592 1593 1594 1594 1594 1595
1506 1508 1509 1511 1513 1517 1519 1523 1525 1525 1525 1528 1531 1533 1534 1535 1536 1538 1541 1544 1546 1548 1550 1552 1555 1558 1560 1563 1564 1566 1567 1568 1570 1572 1573 1575 1576 1577 1578 1578 1579 1580 1581 1581 1582 1583 1584 1584 1585 1585 1586 1587 1587 1588 1588 1589 1590 1591 1591 1592 1593 1593 1594
1508 1509 1510 1512 1513 1515 1517 1519 1522 1523 1525 1528 1531 1533 1532 1533 1533 1534 1537 1540 1543 1546 1549 1551 1554 1556 1559 1561 1563 1565 1566 1568 1569 1570 1572 1573 1574 1575 1576 1577 1578 1578 1579 1580 1581 1581 1582 1583 1583 1584 1585 1586 1586 1587 1587 1588 1588 1589 1590 1590 1591 1592 1593
1509 1510 1511 1513 1514 1515 1517 1518 1519 1522 1526 1528 1530 1531 1531 1533 1535 1535 1537 1540 1543 1546 1548 1550 1552 1555 1558 1560 1562 1564 1566 1568 1568 1569 1570 1571 1572 1574 1574 1575 1576 1576 1577 1578 1579 1580 1580 1581 1582 1582 1583 1584 1585 1586 1586 1587 1587 1587 1588 1589 1590 1590 1591
1510 1510 1511 1512 1513 1514 1515 1516 1517 1520 1524 1527 1529 1531 1533 1537 1539 1541 1543 1546 1547 1548 1549 1550 1552 1554 1557 1559 1561 1563 1565 1566 1567 1568 1569 1569 1570 1572 1573 1573 1574 1574 1575 1576 1577 1578 1578 1579 1580 1581 1582 1583 1583 1584 1584 1585 1586 1586 1587 1587 1588 1588 1589
1512 1511 1512 1512 1513 1513 1514 1515 1517 1519 1521 1524 1527 1529 1533 1538 1540 1542 1544 1546 1547 1548 1550 1553 1554 1554 1556 1558 1560 1562 1563 1563 1564 1565 1566 1567 1568 1569 1571 1572 1572 1572 1573 1574 1575 1575 1576 1577 1578 1579 1580 1581 1582 1582 1583 1583 1584 1584 1585 1586 1586 1587 1587
1513 1513 1513 1513 1513 1513 1514 1514 1516 1518 1520 1523 1525 1527 1531 1535 1538 1541 1543 1544 1545 1546 1549 1552 1553 1553 1555 1558 1560 1561 1561 1562 1562 1563 1564 1565 1566 1567 1568 1569 1570 1571 1571 1572 1573 1573 1574 1575 1576 1577 1578 1579 1580 1581 1581 1582 1582 1583 1583 1584 1584 1585 1585
1514 1515 1514 1513 1513 1514 1515 1515 1515 1517 1519 1521 1524 1526 1529 1531 1535 1538 1541 1541 1542 1544 1546 1549 1550 1552 1554 1556 1559 1560 1560 1559 1560 1560 1561 1561 1562 1563 1565 1566 1567 1568 1569 1570 1571 1571 1572 1573 1574 1575 1576 1577 1578 1579 1580 1580 1581 1581 1581 1582 1582 1582 1583
1515 1516 1516 1515 1515 1515 1515 1516 1517 1518 1519 1521 1524 1527 1529 1531 1533 1536 1539 1540 1540 1541 1543 1546 1549 1550 1551 1552 1555 1557 1559 1559 1558 1559 1560 1560 1559 1560 1561 1563 1565 1566 1567 1568 1568 1569 1570 1571 1572 1573 1574 1575 1576 1577 1577 1578 1579 1579 1579 1580 1580 1580 1580
1517 1517 1518 1518 1518 1517 1516 1517 1518 1519 1519 1521 1524 1526 1529 1532 1533 1534 1537 1539 1540 1541 1542 1543 1547 1549 1550 1550 1552 1555 1557 1558 1559 1559 1560 1559 1559 1559 1560 1561 1562 1564 1565 1566 1566 1567 1568 1569 1570 1571 1572 1573 1574 1574 1575 1576 1577 1577 1577 1578 1578 1578 1579
1519 1518 1518 1519 1521 1521 1520 1520 1520 1520 1520 1521 1523 1526 1529 1532 1534 1535 1537 1539 1542 1543 1543 1544 1546 1548 1549 1549 1550 1552 1554 1555 1556 1557 1556 1556 1557 1557 1557 1559 1560 1562 1563 1564 1564 1565 1566 1567 1568 1569 1569 1571 1571 1572 1573 1573 1574 1575 1575 1576 1576 1576 1577
1520 1520 1519 1519 1522 1523 1524 1525 1523 1522 1522 1522 1523 1527 1530 1532 1533 1534 1536 1539 1541 1543 1544 1545 1546 1547 1547 1547 1547 1549 1550 1552 1553 1553 1554 1555 1555 1554 1556 1559 1560 1560 1561 1561 1562 1562 1563 1564 1564 1566 1567 1568 1569 1570 1570 1571 1571 1572 1573 1573 1574 1574 1575
1523 1522 1521 1521 1523 1525 1527 1528 1526 1524 1524 1524 1525 1528 1532 1533 1534 1534 1535 1537 1539 1542 1543 1545 1546 1546 1546 1545 1546 1547 1548 1549 1549 1551 1553 1553 1552 1553 1555 1557 1558 1558 1558 1558 1558 1559 1560 1560 1560 1563 1565 1566 1566 1567 1567 1568 1569 1569 1570 1571 1571 1572 1572
1524 1524 1525 1526 1527 1527 1527 1527 1526 1525 1525 1525 1527 1530 1533 1535 1537 1537 1536 1536 1539 1541 1542 1544 1545 1544 1544 1545 1545 1546 1545 1545 1547 1550 1553 1552 1550 1551 1552 1553 1555 1555 1554 1555 1555 1556 1556 1556 1558 1562 1563 1563 1563 1563 1564 1565 1566 1567 1568 1568 1568 1569 1569
1526 1525 1526 1529 1530 1528 1527 1529 1529 1529 1529 1530 1532 1536 1537 1538 1539 1539 1538 1538 1539 1541 1542 1542 1543 1543 1544 1544 1545 1545 1543 1544 1547 1551 1552 1550 1549 1549 1550 1550 1551 1551 1551 1552 1552 1553 1554 1554 1556 1559 1560 1560 1559 1559 1560 1562 1563 1564 1565 1565 1566 1566 1567
1527 1526 1525 1529 1532 1531 1531 1533 1533 1534 1534 1536 1538 1540 1541 1540 1539 1538 1539 1539 1539 1540 1541 1542 1543 1544 1544 1544 1545 1544 1544 1547 1550 1551 1550 1548 1547 1547 1547 1547 1548 1548 1549 1550 1550 1550 1551 1551 1552 1555 1556 1556 1556 1556 1557 1558 1560 1561 1562 1562 1563 1563 1563
1529 1529 1529 1531 1534 1534 1533 1534 1534 1535 1538 1540 1541 1542 1542 1541 1537 1536 1538 1539 1539 1540 1541 1543 1544 1545 1545 1545 1546 1546 1548 1550 1551 1550 1549 1548 1547 1547 1546 1546 1546 1547 1547 1548 1549 1549 1550 1549 1550 1551 1552 1553 1553 1553 1555 1556 1557 1558 1559 1559 1559 1560 1560
1533 1534 1534 1535 1536 1536 1536 1536 1537 1539 1541 1543 1543 1544 1544 1541 1537 1536 1538 1540 1541 1542 1544 1545 1546 1546 1546 1547 1548 1549 1549 1550 1550 1550 1549 1548 1548 1547 1547 1546 1546 1546 1546 1547 1547 1548 1548 1549 1549 1550 1550 1551 1551 1551 1552 1554 1554 1555 1556 1556 1556 1557 1558
1536 1537 1538 1538 1539 1539 1539 1539 1540 1542 1543 1544 1545 1544 1543 1541 1539 1539 1541 1543 1544 1545 1546 1547 1547 1548 1548 1549 1549 1550 1550 1550 1550 1550 1549 1549 1549 1549 1548 1547 1547 1547 1547 1547 1547 1548 1548 1548 1549 1549 1550 1550 1550 1551 1551 1552 1552 1552 1553 1552 1553 1554 1554
1538 1539 1540 1540 1541 1540 1540 1540 1541 1542 1543 1544 1544 1544 1543 1542 1543 1543 1544 1545 1546 1547 1548 1548 1548 1548 1549 1549 1550 1550 1550 1550 1550 1550 1550 1550 1550 1550 1549 1549 1548 1548 1548 1548 1548 1548 1549 1549 1549 1550 1550 1550 1550 1550 1551 1551 1551 1551 1550 1550 1551 1551 1552
1540 1541 1541 1542 1541 1541 1541 1542 1542 1543 1543 1544 1544 1544 1544 1545 1545 1545 1546 1547 1547 1548 1548 1549 1549 1549 1550 1550 1550 1550 1550 1550 1550 1551 1550 1550 1550 1550 1550 1550 1550 1549 1549 1549 1548 1549 1549 1549 1550 1550 1550 1550 1550 1550 1550 1550 1551 1550 1550 1550 1550 1550 1551
1541 1542 1542 1543 1542 1542 1543 1543 1544 1544 1545 1545 1545 1546 1546 1546 1547 1547 1547 1548 1548 1549 1549 1549 1550 1550 1550 1551 1551 1551 1551 1551 1551 1551 1551 1551 1551 1551 1551 1551 1551 1551 1550 1550 1549 1549 1550 1550 1550 1550 1550 1550 1550 1550 1550 1550 1550 1550 1550 1550 1550 1550 1551
1543 1543 1543 1544 1544 1544 1544 1544 1545 1546 1547 1547 1548 1548 1548 1549 1549 1549 1549 1549 1549 1549 1549 1550 1550 1551 1551 1551 1551 1551 1551 1551 1551 1552 1552 1551 1551 1551 1551 1551 1551 1551 1551 1551 1550 1550 1550 1551 1551 1551 1551 1551 1551 1551 1551 1551 1551 1551 1551 1551 1551 1551 1551
1544 1544 1545 1545 1545 1546 1546 1546 1547 1548 1548 1549 1550 1550 1550 1550 1550 1550 1550 1550 1550 1550 1550 1550 1551 1551 1552 1552 1552 1552 1552 1552 1552 1552 1552 1552 1551 1551 1551 1551 1551 1551 1551 1551 1551 1551 1551 1551 1551 1551 1551 1552 1552 1552 1552 1552 1552 1552 1552 1552 1552 1552 1552
1545 1546 1546 1546 1547 1547 1548 1548 1549 1549 1550 1550 1551 1551 1552 1552 1552 1552 1552 1552 1552 1551 1551 1552 1551 1552 1552 1552 1552 1553 1553 1552 1553 1552 1552 1552 1551 1550 1550 1550 1550 1551 1551 1551 1551 1551 1551 1551 1551 1551 1552 1552 1552 1552 1552 1552 1552 1552 1552 1552 1551 1551 1551
1546 1547 1547 1548 1549 1549 1549 1549 1550 1550 1550 1550 1551 1552 1552 1552 1553 1553 1553 1553 1553 1553 1553 1552 1552 1552 1553 1553 1553 1553 1553 1553 1553 1552 1552 1552 1551 1550 1550 1549 1549 1550 1550 1551 1551 1551 1551 1551 1551 1551 1551 1552 1552 1551 1551 1552 1552 1552 1552 1551 1551 1551 1550
1547 1547 1548 1549 1549 1550 1550 1550 1550 1550 1550 1550 1550 1551 1551 1552 1552 1553 1553 1553 1553 1553 1553 1553 1552 1552 1552 1552 1552 1552 1552 1552 1552 1552 1552 1552 1551 1551 1550 1549 1548 1548 1549 1549 1550 1550 1551 1551 1551 1551 1551 1551 1551 1551 1551 1551 1550 1551 1551 1551 1550 1550 1550